星链-4286 (STARLINK-4286 )

导读 | 豆包AI

STARLINK-4286是美国太空探索技术公司(SpaceX)星链(Starlink)星座中的一颗卫星,于2022年7月7日发射入轨,作为星链互联网星座的组成部分,它主要为全球范围内用户提供低延迟、高速率的宽带互联网服务,尤其覆盖偏远地区等网络基础设施薄弱区域,推进全球网络互联覆盖。

Basic Information
目录编号:
52990
目录名称:
STARLINK-4286
国际标识:
2022-076E
轨道中心:
EARTH
卫星名称:
星链-4286
卫星全名:
星链-4286 (STARLINK-4286 )
卫星状态:
在轨 (已飞行1393 天)
发射日期:
2022-07-07 UTC
国别 :
美国 (US)
星等 :
--
Orbit Information
数据来源 国际轨道数据 AOE轨道数据
星历时间 2026-04-30T19:27:07+0800
9小时前
查看轨道信息
2026-04-25T09:00:00+0800
5天前
查看轨道信息
半长轴 6917.894km 6917.866km
偏心率 0.0001248 0.0001604
轨道倾角 53.218° 53.216°
近地点辐角 91.071° 66.140°
升交点赤经 231.639° 256.036°
平近点角 269.043° 273.273°
近地点 538.893km 538.619km
远地点 540.621km 540.839km
周期 95.438分钟 95.437分钟
每日圈数 15.088357 15.08845
Detailed Information
固有亮度:
5
最大亮度:
2.5
卫星平台:
Starlink v1.5
覆盖范围:
全球
运营商:
太空探索技术公司
运营商所在国:
美国
制造商(研发单位):
太空探索技术公司
制造商所在国:
美国
使用方式:
暂无
Satellite Introduction
星链(Starlink)计划是由太空探索技术公司(SpaceX)提出的一个巨型低轨卫星互联网星座项目,计划在2019年至2024年间在太空搭建由约1.2万颗卫星组成的“星链”网络,其中1584颗将部署在地球上空550千米处的近地轨道,并从2020年开始工作。该卫星仍在工作。
2D Orbit Map
3D Orbit Map
Orbit Altitude Analysis Chart
Orbit Inclination Analysis Chart
Orbit Comprehensive Analysis Chart
View Comprehensive Chart